Regional Weather Roundup
Issued by NWS Newport/Morehead, NC

Current Version | Previous Version | Graphics & Text | Print | Product List | Glossary On
Versions: 1 2 3 4 5 6 7 8 9 10 11 12 13 14 15 16 17 18 19 20 21 22 23 24 25 26 27 28 29 30 31 32 33 34 35 36 37 38 39 40 41 42 43 44 45 46 47 48 49 50
000
ASUS42 KMHX 270012
RWRMHX
WEATHER ROUNDUP FOR EASTERN NORTH CAROLINA
NATIONAL WEATHER SERVICE NEWPORT/MOREHEAD CITY NC
800 PM EDT SUN APR 26 2015

NOTE: "FAIR" INDICATES FEW OR NO CLOUDS BELOW 12,000 FEET
WITH NO SIGNIFICANT WEATHER AND/OR OBSTRUCTIONS TO VISIBILITY

NCZ015>017-031-032-045>047-102-103-270100-
NORTH COAST

CITY           SKY/WX    TMP DP  RH WIND       PRES   REMARKS
EDENTON        PTCLDY    53  46  77 CALM      29.73R
ELIZABETH CITY PTCLDY    54  38  54 NE7       29.72R
KITTY HAWK     CLEAR     51  35  55 N8        29.70S
MANTEO         PTCLDY    51  34  52 N12       29.71F

$$

NCZ045>047-081-094-103-104-270100-
CENTRAL COAST

CITY           SKY/WX    TMP DP  RH WIND       PRES   REMARKS
FRISCO         PTCLDY    50  39  66 N9        29.70R
SWANQUARTER      N/A     52 N/A N/A N2        29.68S

$$

NCZ095-097-098-100-101-270100-
SOUTHERN COAST

CITY           SKY/WX    TMP DP  RH WIND       PRES   REMARKS
BEAUFORT       CLOUDY    53  49  86 N8        29.71R
CEDAR ISLAND     N/A     55 N/A N/A N17G23    29.74S
JACKSONVILLE   CLOUDY    54  47  77 N9        29.71S
PINEY ISLAND   LGT RAIN N/A N/A N/A N15       29.71R
WILMINGTON     CLOUDY    55  48  77 NE14      29.70R


$$

NCZ011>013-027>030-043-044-078>080-089-090>093-098-270100-
COASTAL PLAIN

CITY           SKY/WX    TMP DP  RH WIND       PRES   REMARKS
AHOSKIE          N/A     51  48  90 CALM      29.73R
CLINTON        CLOUDY    53  48  84 N7        29.74R
ELIZABETHTOWN  CLOUDY    54  49  82 CALM      29.73R
GOLDSBORO      CLOUDY    52  48  87 N1        29.72R
GREENVILLE     PTCLDY    52  46  82 CALM      29.76R
HAVELOCK       CLOUDY    54  47  77 N13       29.72R
KENANSVILLE    CLOUDY    53  46  79 N6        29.74R
KINSTON        CLOUDY    54  46  76 N6        29.74R
NEW BERN       LGT RAIN  53  47  79 N10       29.73R
RICHLANDS      CLOUDY    54  45  71 N5        29.73R
ROCKY MOUNT    MOCLDY    53  46  77 N5        29.74R
WASHINGTON       N/A     51  46  84 N3        29.72S
WHITEVILLE     CLOUDY    55  50  84 N6        29.71R

$$

AMZ130-135-150-152-154-156-158-170-250-252-270-ANZ085-086-088-633-658-670-270100-
MARINE OBSERVATIONS

STATION/POSITION TIME  TEMP    WIND        PRES    WAVE   SWELL
                       AIR SEA DIR/SP/G            HT/PER HT/PER
                 (UTC) (F)     (DEG/KT/KT) (MB)    (FT/S) (FT/S)
CHESAPEAKE LIGHT 2300   51      30/  8/  8 1006.6
64 E VA BEACH    2350   56 56   20/ 17/ 19 1004.7    5/ 5   2/11
DUCK             2300   53 54   10/ 12/ 15 1004.4
2 E DUCK         2311      54                N/A     4/ 6
10 NE DUCK       NOT AVBL
OREGON INLET     2300   52 55  350/ 10/ 15 1005.6
HATTERAS CG      2312   54 62   10/ 19/ 22 1004.6
DIAMOND BUOY     2350   57 78  360/ 21/ 25 1004.6    7/10   2/15
CAPE LOOKOUT     0000   54     360/ 14/ 16 1005.5
BEAUFORT LAB     2312   54 62   10/ 11/ 13 1004.7
27 SE WRIGHTSVLE 2300   57 72   40/ 16/ 19   N/A
5 SE WRIGHTSVLE  2308   58 65   20/ 14/ 19 1005.2
225 S CAPE HAT   2350   71 71  340/ 14/ 17 1003.6    8/ 8   7/ 8
41 SE CHARLESTON 2350   74 72  220/ 17/ 23 1001.5    4/ 6   2/ 7

$$


USA.gov is the U.S. government's official web portal to all federal, state and local government web resources and services.